Lid_Strength_Index
4 6 5 5 5 6 7 8 8 7 8 8 9 8 9 10 10 10 11 11 11 11
4 4 4 5 7 6 7 8 7 7 9 8 9 9 10 10 11 11 11 12 12 13
5 5 7 7 7 8 8 8 8 9 10 9 10 11 10 11 11 12 12 11 12 12
8 8 8 9 9 9 9 9 9 9 9 10 10 11 12 12 12 11 12 12 12 11
9 9 10 10 9 9 10 10 9 10 10 11 11 12 12 11 11 11 11 11 11 10
10 11 10 10 10 11 10 11 11 11 11 11 11 11 11 11 11 11 11 11 11 10
12 12 12 12 11 12 12 12 12 12 11 11 11 11 10 10 11 11 10 10 9 9
12 12 12 12 12 12 12 12 12 11 11 11 11 10 11 10 10 10 10 10 9 9
11 11 12 12 12 12 12 12 12 12 12 12 9 6 4 5 9 9 10 10 9 9
11 11 12 12 12 12 12 12 12 12 12 11 10 5 4 4 8 9 10 11 11 11
12 12 12 12 12 12 12 12 12 12 12 11 10 5 5 5 10 11 11 11 11 11
12 12 12 12 12 13 13 13 13 11 11 12 12 7 6 7 10 11 11 10 10 10
12 12 12 12 13 13 13 12 11 11 13 10 12 8 7 8 10 11 11 10 10 7
12 12 13 13 13 13 13 13 13 13 13 13 12 11 7 7 10 10 9 10 10 10